Date_Time,Julian_Date,Latitude,Longitude,Instrument_Depth,U,V,Speed,Direction
(yyyy-mm-dd hh:mn:ss UTC),(JD),(+ deg. North),(+ deg. East),(m),(cm/s),(cm/s),(cm/s),(deg True)
1983-10-27 17:30:00 UTC,2445635.229167,29.6633,-93.3933,0082,13.07,5.02,14.0000,69.0000
1983-10-27 18:00:00 UTC,2445635.250000,29.6633,-93.3933,0082,11.69,2.70,12.0000,77.0000
1983-10-27 18:30:00 UTC,2445635.270833,29.6633,-93.3933,0082,11.78,2.29,12.0000,79.0000
1983-10-27 19:00:00 UTC,2445635.291667,29.6633,-93.3933,0082,11.78,2.29,12.0000,79.0000
1983-10-27 19:30:00 UTC,2445635.312500,29.6633,-93.3933,0082,12.84,2.03,13.0000,81.0000
1983-10-27 20:00:00 UTC,2445635.333333,29.6633,-93.3933,0082,12.90,1.58,13.0000,83.0000
1983-10-27 20:30:00 UTC,2445635.354167,29.6633,-93.3933,0082,11.91,1.46,12.0000,83.0000
1983-10-27 21:00:00 UTC,2445635.375000,29.6633,-93.3933,0082,11.82,2.08,12.0000,80.0000
1983-10-27 21:30:00 UTC,2445635.395833,29.6633,-93.3933,0082,11.69,2.70,12.0000,77.0000
1983-10-27 22:00:00 UTC,2445635.416667,29.6633,-93.3933,0082,9.85,1.74,10.0000,80.0000
1983-10-27 22:30:00 UTC,2445635.437500,29.6633,-93.3933,0082,8.93,1.10,9.0000,83.0000
1983-10-27 23:00:00 UTC,2445635.458333,29.6633,-93.3933,0082,6.91,1.10,7.0000,81.0000
1983-10-27 23:30:00 UTC,2445635.479167,29.6633,-93.3933,0082,5.80,1.55,6.0000,75.0000
1983-10-28 00:00:00 UTC,2445635.500000,29.6633,-93.3933,0082,4.57,2.03,5.0000,66.0000
1983-10-28 00:30:00 UTC,2445635.520833,29.6633,-93.3933,0082,3.46,2.00,4.0000,60.0000
1983-10-28 01:00:00 UTC,2445635.541667,29.6633,-93.3933,0082,4.15,2.80,5.0000,56.0000
1983-10-28 01:30:00 UTC,2445635.562500,29.6633,-93.3933,0082,3.99,3.01,5.0000,53.0000
1983-10-28 02:00:00 UTC,2445635.583333,29.6633,-93.3933,0082,4.79,3.61,6.0000,53.0000
1983-10-28 02:30:00 UTC,2445635.604167,29.6633,-93.3933,0082,4.79,3.61,6.0000,53.0000
1983-10-28 03:00:00 UTC,2445635.625000,29.6633,-93.3933,0082,6.00,3.61,7.0000,59.0000
1983-10-28 03:30:00 UTC,2445635.645833,29.6633,-93.3933,0082,9.06,4.23,10.0000,65.0000
1983-10-28 04:00:00 UTC,2445635.666667,29.6633,-93.3933,0082,11.97,5.08,13.0000,67.0000
1983-10-28 04:30:00 UTC,2445635.687500,29.6633,-93.3933,0082,12.05,4.87,13.0000,68.0000
1983-10-28 05:00:00 UTC,2445635.708333,29.6633,-93.3933,0082,11.05,4.69,12.0000,67.0000
1983-10-28 05:30:00 UTC,2445635.729167,29.6633,-93.3933,0082,10.60,5.63,12.0000,62.0000
1983-10-28 06:00:00 UTC,2445635.750000,29.6633,-93.3933,0082,9.43,5.67,11.0000,59.0000
1983-10-28 06:30:00 UTC,2445635.770833,29.6633,-93.3933,0082,9.71,5.16,11.0000,62.0000
1983-10-28 07:00:00 UTC,2445635.791667,29.6633,-93.3933,0082,10.39,6.00,12.0000,60.0000
1983-10-28 07:30:00 UTC,2445635.812500,29.6633,-93.3933,0082,11.02,6.89,13.0000,58.0000
1983-10-28 08:00:00 UTC,2445635.833333,29.6633,-93.3933,0082,12.00,7.21,14.0000,59.0000
1983-10-28 08:30:00 UTC,2445635.854167,29.6633,-93.3933,0082,12.99,7.50,15.0000,60.0000
1983-10-28 09:00:00 UTC,2445635.875000,29.6633,-93.3933,0082,11.87,7.42,14.0000,58.0000
1983-10-28 09:30:00 UTC,2445635.895833,29.6633,-93.3933,0082,11.87,7.42,14.0000,58.0000
1983-10-28 10:00:00 UTC,2445635.916667,29.6633,-93.3933,0082,11.87,7.42,14.0000,58.0000
1983-10-28 10:30:00 UTC,2445635.937500,29.6633,-93.3933,0082,12.99,7.50,15.0000,60.0000
1983-10-28 11:00:00 UTC,2445635.958333,29.6633,-93.3933,0082,13.59,6.34,15.0000,65.0000
1983-10-28 11:30:00 UTC,2445635.979167,29.6633,-93.3933,0082,13.07,5.02,14.0000,69.0000
1983-10-28 12:00:00 UTC,2445636.000000,29.6633,-93.3933,0082,12.50,3.58,13.0000,74.0000
1983-10-28 12:30:00 UTC,2445636.020833,29.6633,-93.3933,0082,11.82,2.08,12.0000,80.0000
1983-10-28 13:00:00 UTC,2445636.041667,29.6633,-93.3933,0082,11.93,1.25,12.0000,84.0000
1983-10-28 13:30:00 UTC,2445636.062500,29.6633,-93.3933,0082,10.98,0.58,11.0000,87.0000
1983-10-28 14:00:00 UTC,2445636.083333,29.6633,-93.3933,0082,10.99,0.38,11.0000,88.0000
1983-10-28 14:30:00 UTC,2445636.104167,29.6633,-93.3933,0082,12.00,0.00,12.0000,90.0000
1983-10-28 15:00:00 UTC,2445636.125000,29.6633,-93.3933,0082,11.98,-0.63,12.0000,93.0000
1983-10-28 15:30:00 UTC,2445636.145833,29.6633,-93.3933,0082,11.95,-1.05,12.0000,95.0000
1983-10-28 16:00:00 UTC,2445636.166667,29.6633,-93.3933,0082,11.93,-1.25,12.0000,96.0000
1983-10-28 16:30:00 UTC,2445636.187500,29.6633,-93.3933,0082,11.95,-1.05,12.0000,95.0000
1983-10-28 17:00:00 UTC,2445636.208333,29.6633,-93.3933,0082,10.98,-0.58,11.0000,93.0000
1983-10-28 17:30:00 UTC,2445636.229167,29.6633,-93.3933,0082,10.00,-0.17,10.0000,91.0000
1983-10-28 18:00:00 UTC,2445636.250000,29.6633,-93.3933,0082,9.00,0.00,9.0000,90.0000
1983-10-28 18:30:00 UTC,2445636.270833,29.6633,-93.3933,0082,9.99,-0.35,10.0000,92.0000
1983-10-28 19:00:00 UTC,2445636.291667,29.6633,-93.3933,0082,9.99,-0.52,10.0000,93.0000
1983-10-28 19:30:00 UTC,2445636.312500,29.6633,-93.3933,0082,8.00,-0.14,8.0000,91.0000
1983-10-28 20:00:00 UTC,2445636.333333,29.6633,-93.3933,0082,5.99,0.42,6.0000,86.0000
1983-10-28 20:30:00 UTC,2445636.354167,29.6633,-93.3933,0082,5.89,1.14,6.0000,79.0000
1983-10-28 21:00:00 UTC,2445636.375000,29.6633,-93.3933,0082,5.74,1.75,6.0000,73.0000
1983-10-28 21:30:00 UTC,2445636.395833,29.6633,-93.3933,0082,5.56,2.25,6.0000,68.0000
1983-10-28 22:00:00 UTC,2445636.416667,29.6633,-93.3933,0082,4.33,2.50,5.0000,60.0000
1983-10-28 22:30:00 UTC,2445636.437500,29.6633,-93.3933,0082,2.88,2.78,4.0000,46.0000
1983-10-28 23:00:00 UTC,2445636.458333,29.6633,-93.3933,0082,1.12,1.66,2.0000,34.0000
1983-10-28 23:30:00 UTC,2445636.479167,29.6633,-93.3933,0082,1.81,2.40,3.0000,37.0000
1983-10-29 00:00:00 UTC,2445636.500000,29.6633,-93.3933,0082,1.60,1.20,2.0000,53.0000
1983-10-29 00:30:00 UTC,2445636.520833,29.6633,-93.3933,0082,2.87,0.88,3.0000,73.0000
1983-10-29 01:00:00 UTC,2445636.541667,29.6633,-93.3933,0082,3.63,1.69,4.0000,65.0000
1983-10-29 01:30:00 UTC,2445636.562500,29.6633,-93.3933,0082,5.25,2.91,6.0000,61.0000
1983-10-29 02:00:00 UTC,2445636.583333,29.6633,-93.3933,0082,4.37,2.42,5.0000,61.0000
1983-10-29 02:30:00 UTC,2445636.604167,29.6633,-93.3933,0082,3.43,2.06,4.0000,59.0000
1983-10-29 03:00:00 UTC,2445636.625000,29.6633,-93.3933,0082,1.70,1.06,2.0000,58.0000
1983-10-29 03:30:00 UTC,2445636.645833,29.6633,-93.3933,0082,1.62,1.18,2.0000,54.0000
1983-10-29 04:00:00 UTC,2445636.666667,29.6633,-93.3933,0082,3.63,1.69,4.0000,65.0000
1983-10-29 04:30:00 UTC,2445636.687500,29.6633,-93.3933,0082,5.93,0.94,6.0000,81.0000
1983-10-29 05:00:00 UTC,2445636.708333,29.6633,-93.3933,0082,7.00,0.00,7.0000,90.0000
1983-10-29 05:30:00 UTC,2445636.729167,29.6633,-93.3933,0082,5.91,-1.04,6.0000,100.0000
1983-10-29 06:00:00 UTC,2445636.750000,29.6633,-93.3933,0082,4.67,-1.79,5.0000,111.0000
1983-10-29 06:30:00 UTC,2445636.770833,29.6633,-93.3933,0082,4.46,-2.27,5.0000,117.0000
1983-10-29 07:00:00 UTC,2445636.791667,29.6633,-93.3933,0082,4.49,-2.19,5.0000,116.0000
1983-10-29 07:30:00 UTC,2445636.812500,29.6633,-93.3933,0082,4.83,-1.29,5.0000,105.0000
1983-10-29 08:00:00 UTC,2445636.833333,29.6633,-93.3933,0082,5.00,-0.17,5.0000,92.0000
1983-10-29 08:30:00 UTC,2445636.854167,29.6633,-93.3933,0082,4.95,0.70,5.0000,82.0000
1983-10-29 09:00:00 UTC,2445636.875000,29.6633,-93.3933,0082,4.91,0.95,5.0000,79.0000
1983-10-29 09:30:00 UTC,2445636.895833,29.6633,-93.3933,0082,4.85,1.21,5.0000,76.0000
1983-10-29 10:00:00 UTC,2445636.916667,29.6633,-93.3933,0082,4.57,2.03,5.0000,66.0000
1983-10-29 10:30:00 UTC,2445636.937500,29.6633,-93.3933,0082,5.03,3.27,6.0000,57.0000
1983-10-29 11:00:00 UTC,2445636.958333,29.6633,-93.3933,0082,5.52,4.31,7.0000,52.0000
1983-10-29 11:30:00 UTC,2445636.979167,29.6633,-93.3933,0082,6.39,4.81,8.0000,53.0000
1983-10-29 12:00:00 UTC,2445637.000000,29.6633,-93.3933,0082,7.37,5.16,9.0000,55.0000
1983-10-29 12:30:00 UTC,2445637.020833,29.6633,-93.3933,0082,8.39,5.45,10.0000,57.0000
1983-10-29 13:00:00 UTC,2445637.041667,29.6633,-93.3933,0082,8.66,5.00,10.0000,60.0000
1983-10-29 13:30:00 UTC,2445637.062500,29.6633,-93.3933,0082,8.99,4.38,10.0000,64.0000
1983-10-29 14:00:00 UTC,2445637.083333,29.6633,-93.3933,0082,9.34,3.58,10.0000,69.0000
1983-10-29 14:30:00 UTC,2445637.104167,29.6633,-93.3933,0082,10.63,2.85,11.0000,75.0000
1983-10-29 15:00:00 UTC,2445637.125000,29.6633,-93.3933,0082,12.76,2.48,13.0000,79.0000
1983-10-29 15:30:00 UTC,2445637.145833,29.6633,-93.3933,0082,12.80,2.26,13.0000,80.0000
1983-10-29 16:00:00 UTC,2445637.166667,29.6633,-93.3933,0082,11.91,1.46,12.0000,83.0000
1983-10-29 16:30:00 UTC,2445637.187500,29.6633,-93.3933,0082,12.99,0.45,13.0000,88.0000
1983-10-29 17:00:00 UTC,2445637.208333,29.6633,-93.3933,0082,15.96,-1.12,16.0000,94.0000
1983-10-29 17:30:00 UTC,2445637.229167,29.6633,-93.3933,0082,16.69,-3.24,17.0000,101.0000
1983-10-29 18:00:00 UTC,2445637.250000,29.6633,-93.3933,0082,15.45,-4.14,16.0000,105.0000
1983-10-29 18:30:00 UTC,2445637.270833,29.6633,-93.3933,0082,13.31,-4.33,14.0000,108.0000
1983-10-29 19:00:00 UTC,2445637.291667,29.6633,-93.3933,0082,11.35,-3.91,12.0000,109.0000
1983-10-29 19:30:00 UTC,2445637.312500,29.6633,-93.3933,0082,11.48,-3.51,12.0000,107.0000
1983-10-29 20:00:00 UTC,2445637.333333,29.6633,-93.3933,0082,10.46,-3.40,11.0000,108.0000
1983-10-29 20:30:00 UTC,2445637.354167,29.6633,-93.3933,0082,8.22,-3.66,9.0000,114.0000
1983-10-29 21:00:00 UTC,2445637.375000,29.6633,-93.3933,0082,5.87,-3.81,7.0000,123.0000
1983-10-29 21:30:00 UTC,2445637.395833,29.6633,-93.3933,0082,3.72,-3.35,5.0000,132.0000
1983-10-29 22:00:00 UTC,2445637.416667,29.6633,-93.3933,0082,2.26,-1.97,3.0000,131.0000
1983-10-29 22:30:00 UTC,2445637.437500,29.6633,-93.3933,0082,1.58,-1.23,2.0000,128.0000
1983-10-29 23:00:00 UTC,2445637.458333,29.6633,-93.3933,0082,0.62,-0.79,1.0000,142.0000
1983-10-29 23:30:00 UTC,2445637.479167,29.6633,-93.3933,0082,-0.00,-0.00,0.0000,184.0000
1983-10-30 00:00:00 UTC,2445637.500000,29.6633,-93.3933,0082,-0.00,-0.00,0.0000,251.0000
1983-10-30 00:30:00 UTC,2445637.520833,29.6633,-93.3933,0082,-0.81,-0.59,1.0000,234.0000
1983-10-30 01:00:00 UTC,2445637.541667,29.6633,-93.3933,0082,-0.31,-0.95,1.0000,198.0000
1983-10-30 01:30:00 UTC,2445637.562500,29.6633,-93.3933,0082,0.89,-0.45,1.0000,117.0000
1983-10-30 02:00:00 UTC,2445637.583333,29.6633,-93.3933,0082,3.69,4.73,6.0000,38.0000
1983-10-30 02:30:00 UTC,2445637.604167,29.6633,-93.3933,0082,5.54,7.09,9.0000,38.0000
1983-10-30 03:00:00 UTC,2445637.625000,29.6633,-93.3933,0082,3.21,3.83,5.0000,40.0000
1983-10-30 03:30:00 UTC,2445637.645833,29.6633,-93.3933,0082,-0.79,0.62,1.0000,308.0000
1983-10-30 04:00:00 UTC,2445637.666667,29.6633,-93.3933,0082,-3.46,-2.00,4.0000,240.0000
1983-10-30 04:30:00 UTC,2445637.687500,29.6633,-93.3933,0082,-4.97,-3.36,6.0000,236.0000
1983-10-30 05:00:00 UTC,2445637.708333,29.6633,-93.3933,0082,-4.97,-3.36,6.0000,236.0000
1983-10-30 05:30:00 UTC,2445637.729167,29.6633,-93.3933,0082,-4.33,-2.50,5.0000,240.0000
1983-10-30 06:00:00 UTC,2445637.750000,29.6633,-93.3933,0082,-2.82,-1.03,3.0000,250.0000
1983-10-30 06:30:00 UTC,2445637.770833,29.6633,-93.3933,0082,-3.00,0.10,3.0000,272.0000
1983-10-30 07:00:00 UTC,2445637.791667,29.6633,-93.3933,0082,-2.74,1.22,3.0000,294.0000
1983-10-30 07:30:00 UTC,2445637.812500,29.6633,-93.3933,0082,-0.74,0.67,1.0000,312.0000
1983-10-30 08:00:00 UTC,2445637.833333,29.6633,-93.3933,0082,0.00,0.00,0.0000,8.0000
1983-10-30 08:30:00 UTC,2445637.854167,29.6633,-93.3933,0082,1.00,0.09,1.0000,85.0000
1983-10-30 09:00:00 UTC,2445637.875000,29.6633,-93.3933,0082,4.00,0.07,4.0000,89.0000
1983-10-30 09:30:00 UTC,2445637.895833,29.6633,-93.3933,0082,6.97,0.61,7.0000,85.0000
1983-10-30 10:00:00 UTC,2445637.916667,29.6633,-93.3933,0082,8.95,0.94,9.0000,84.0000
1983-10-30 10:30:00 UTC,2445637.937500,29.6633,-93.3933,0082,9.96,0.87,10.0000,85.0000
1983-10-30 11:00:00 UTC,2445637.958333,29.6633,-93.3933,0082,11.88,1.67,12.0000,82.0000
1983-10-30 11:30:00 UTC,2445637.979167,29.6633,-93.3933,0082,14.62,3.37,15.0000,77.0000
1983-10-30 12:00:00 UTC,2445638.000000,29.6633,-93.3933,0082,17.39,4.66,18.0000,75.0000
1983-10-30 12:30:00 UTC,2445638.020833,29.6633,-93.3933,0082,18.51,4.27,19.0000,77.0000
1983-10-30 13:00:00 UTC,2445638.041667,29.6633,-93.3933,0082,17.67,3.43,18.0000,79.0000
1983-10-30 13:30:00 UTC,2445638.062500,29.6633,-93.3933,0082,16.63,3.53,17.0000,78.0000
1983-10-30 14:00:00 UTC,2445638.083333,29.6633,-93.3933,0082,16.50,4.11,17.0000,76.0000
1983-10-30 14:30:00 UTC,2445638.104167,29.6633,-93.3933,0082,16.50,4.11,17.0000,76.0000
1983-10-30 15:00:00 UTC,2445638.125000,29.6633,-93.3933,0082,17.54,4.05,18.0000,77.0000
1983-10-30 15:30:00 UTC,2445638.145833,29.6633,-93.3933,0082,18.65,3.63,19.0000,79.0000
1983-10-30 16:00:00 UTC,2445638.166667,29.6633,-93.3933,0082,16.91,1.78,17.0000,84.0000
1983-10-30 16:30:00 UTC,2445638.187500,29.6633,-93.3933,0082,14.00,0.00,14.0000,90.0000
1983-10-30 17:00:00 UTC,2445638.208333,29.6633,-93.3933,0082,13.98,-0.73,14.0000,93.0000
1983-10-30 17:30:00 UTC,2445638.229167,29.6633,-93.3933,0082,14.77,-2.60,15.0000,100.0000
1983-10-30 18:00:00 UTC,2445638.250000,29.6633,-93.3933,0082,14.10,-5.13,15.0000,110.0000
1983-10-30 18:30:00 UTC,2445638.270833,29.6633,-93.3933,0082,11.58,-5.90,13.0000,117.0000
1983-10-30 19:00:00 UTC,2445638.291667,29.6633,-93.3933,0082,9.71,-5.16,11.0000,118.0000
1983-10-30 19:30:00 UTC,2445638.312500,29.6633,-93.3933,0082,7.71,-4.64,9.0000,121.0000
1983-10-30 20:00:00 UTC,2445638.333333,29.6633,-93.3933,0082,6.47,-4.70,8.0000,126.0000
1983-10-30 20:30:00 UTC,2445638.354167,29.6633,-93.3933,0082,4.53,-3.94,6.0000,131.0000
1983-10-30 21:00:00 UTC,2445638.375000,29.6633,-93.3933,0082,3.54,-3.54,5.0000,135.0000
1983-10-30 21:30:00 UTC,2445638.395833,29.6633,-93.3933,0082,1.72,-2.46,3.0000,145.0000
1983-10-30 22:00:00 UTC,2445638.416667,29.6633,-93.3933,0082,-0.62,-1.90,2.0000,198.0000
1983-10-30 22:30:00 UTC,2445638.437500,29.6633,-93.3933,0082,-2.74,-1.22,3.0000,246.0000
1983-10-30 23:00:00 UTC,2445638.458333,29.6633,-93.3933,0082,-3.98,-0.35,4.0000,265.0000
1983-10-30 23:30:00 UTC,2445638.479167,29.6633,-93.3933,0082,-4.98,0.44,5.0000,275.0000
1983-10-31 00:00:00 UTC,2445638.500000,29.6633,-93.3933,0082,-4.92,0.87,5.0000,280.0000
1983-10-31 00:30:00 UTC,2445638.520833,29.6633,-93.3933,0082,-3.83,1.17,4.0000,287.0000
1983-10-31 01:00:00 UTC,2445638.541667,29.6633,-93.3933,0082,-3.85,1.10,4.0000,286.0000
1983-10-31 01:30:00 UTC,2445638.562500,29.6633,-93.3933,0082,-5.99,0.42,6.0000,274.0000
1983-10-31 02:00:00 UTC,2445638.583333,29.6633,-93.3933,0082,-7.99,-0.42,8.0000,267.0000
1983-10-31 02:30:00 UTC,2445638.604167,29.6633,-93.3933,0082,-9.93,-1.22,10.0000,263.0000
1983-10-31 03:00:00 UTC,2445638.625000,29.6633,-93.3933,0082,-11.88,-1.67,12.0000,262.0000
1983-10-31 03:30:00 UTC,2445638.645833,29.6633,-93.3933,0082,-13.90,-1.71,14.0000,263.0000
1983-10-31 04:00:00 UTC,2445638.666667,29.6633,-93.3933,0082,-13.92,-1.46,14.0000,264.0000
1983-10-31 04:30:00 UTC,2445638.687500,29.6633,-93.3933,0082,-10.89,-1.53,11.0000,262.0000
1983-10-31 05:00:00 UTC,2445638.708333,29.6633,-93.3933,0082,-7.96,-0.84,8.0000,264.0000
1983-10-31 05:30:00 UTC,2445638.729167,29.6633,-93.3933,0082,-7.79,1.80,8.0000,283.0000
1983-10-31 06:00:00 UTC,2445638.750000,29.6633,-93.3933,0082,-8.66,5.00,10.0000,300.0000
1983-10-31 06:30:00 UTC,2445638.770833,29.6633,-93.3933,0082,-8.75,4.85,10.0000,299.0000
1983-10-31 07:00:00 UTC,2445638.791667,29.6633,-93.3933,0082,-5.93,0.94,6.0000,279.0000
1983-10-31 07:30:00 UTC,2445638.812500,29.6633,-93.3933,0082,-2.78,-2.88,4.0000,224.0000
1983-10-31 08:00:00 UTC,2445638.833333,29.6633,-93.3933,0082,-1.71,-4.70,5.0000,200.0000
1983-10-31 08:30:00 UTC,2445638.854167,29.6633,-93.3933,0082,-0.97,-6.93,7.0000,188.0000
1983-10-31 09:00:00 UTC,2445638.875000,29.6633,-93.3933,0082,-0.35,-9.99,10.0000,182.0000
1983-10-31 09:30:00 UTC,2445638.895833,29.6633,-93.3933,0082,-0.21,-12.00,12.0000,181.0000
1983-10-31 10:00:00 UTC,2445638.916667,29.6633,-93.3933,0082,-0.38,-10.99,11.0000,182.0000
1983-10-31 10:30:00 UTC,2445638.937500,29.6633,-93.3933,0082,0.00,-10.00,10.0000,180.0000
1983-10-31 11:00:00 UTC,2445638.958333,29.6633,-93.3933,0082,0.16,-9.00,9.0000,179.0000
1983-10-31 11:30:00 UTC,2445638.979167,29.6633,-93.3933,0082,-0.85,-6.95,7.0000,187.0000
1983-10-31 12:00:00 UTC,2445639.000000,29.6633,-93.3933,0082,-3.08,-3.94,5.0000,218.0000
1983-10-31 12:30:00 UTC,2445639.020833,29.6633,-93.3933,0082,-4.99,-0.35,5.0000,266.0000
1983-10-31 13:00:00 UTC,2445639.041667,29.6633,-93.3933,0082,-5.85,1.35,6.0000,283.0000
1983-10-31 13:30:00 UTC,2445639.062500,29.6633,-93.3933,0082,-6.76,1.81,7.0000,285.0000
1983-10-31 14:00:00 UTC,2445639.083333,29.6633,-93.3933,0082,-7.61,2.47,8.0000,288.0000
1983-10-31 14:30:00 UTC,2445639.104167,29.6633,-93.3933,0082,-8.22,3.66,9.0000,294.0000
1983-10-31 15:00:00 UTC,2445639.125000,29.6633,-93.3933,0082,-7.79,4.50,9.0000,300.0000
1983-10-31 15:30:00 UTC,2445639.145833,29.6633,-93.3933,0082,-7.13,3.63,8.0000,297.0000
1983-10-31 16:00:00 UTC,2445639.166667,29.6633,-93.3933,0082,-8.61,2.63,9.0000,287.0000
1983-10-31 16:30:00 UTC,2445639.187500,29.6633,-93.3933,0082,-8.80,1.87,9.0000,282.0000
1983-10-31 17:00:00 UTC,2445639.208333,29.6633,-93.3933,0082,-8.83,1.72,9.0000,281.0000
1983-10-31 17:30:00 UTC,2445639.229167,29.6633,-93.3933,0082,-7.88,1.39,8.0000,280.0000
1983-10-31 18:00:00 UTC,2445639.250000,29.6633,-93.3933,0082,-6.97,0.61,7.0000,275.0000
1983-10-31 18:30:00 UTC,2445639.270833,29.6633,-93.3933,0082,-4.98,-0.44,5.0000,265.0000
1983-10-31 19:00:00 UTC,2445639.291667,29.6633,-93.3933,0082,-3.68,-1.56,4.0000,247.0000
1983-10-31 19:30:00 UTC,2445639.312500,29.6633,-93.3933,0082,-4.37,-2.42,5.0000,241.0000
1983-10-31 20:00:00 UTC,2445639.333333,29.6633,-93.3933,0082,-5.44,-2.54,6.0000,245.0000
1983-10-31 20:30:00 UTC,2445639.354167,29.6633,-93.3933,0082,-7.31,-3.25,8.0000,246.0000
1983-10-31 21:00:00 UTC,2445639.375000,29.6633,-93.3933,0082,-8.02,-4.09,9.0000,243.0000
1983-10-31 21:30:00 UTC,2445639.395833,29.6633,-93.3933,0082,-8.02,-4.09,9.0000,243.0000
1983-10-31 22:00:00 UTC,2445639.416667,29.6633,-93.3933,0082,-9.40,-3.42,10.0000,250.0000
1983-10-31 22:30:00 UTC,2445639.437500,29.6633,-93.3933,0082,-10.72,-2.47,11.0000,257.0000
1983-10-31 23:00:00 UTC,2445639.458333,29.6633,-93.3933,0082,-10.89,-1.53,11.0000,262.0000
1983-10-31 23:30:00 UTC,2445639.479167,29.6633,-93.3933,0082,-12.00,-0.00,12.0000,270.0000
1983-11-01 00:00:00 UTC,2445639.500000,29.6633,-93.3933,0082,-12.84,2.03,13.0000,279.0000
1983-11-01 00:30:00 UTC,2445639.520833,29.6633,-93.3933,0082,-12.50,3.58,13.0000,286.0000
1983-11-01 01:00:00 UTC,2445639.541667,29.6633,-93.3933,0082,-12.14,4.66,13.0000,291.0000
1983-11-01 01:30:00 UTC,2445639.562500,29.6633,-93.3933,0082,-10.96,4.88,12.0000,294.0000
1983-11-01 02:00:00 UTC,2445639.583333,29.6633,-93.3933,0082,-10.96,4.88,12.0000,294.0000
1983-11-01 02:30:00 UTC,2445639.604167,29.6633,-93.3933,0082,-12.89,5.47,14.0000,293.0000
1983-11-01 03:00:00 UTC,2445639.625000,29.6633,-93.3933,0082,-14.94,5.73,16.0000,291.0000
1983-11-01 03:30:00 UTC,2445639.645833,29.6633,-93.3933,0082,-17.12,5.56,18.0000,288.0000
1983-11-01 04:00:00 UTC,2445639.666667,29.6633,-93.3933,0082,-17.12,5.56,18.0000,288.0000
1983-11-01 04:30:00 UTC,2445639.687500,29.6633,-93.3933,0082,-15.97,5.81,17.0000,290.0000
1983-11-01 05:00:00 UTC,2445639.708333,29.6633,-93.3933,0082,-14.00,5.38,15.0000,291.0000
1983-11-01 05:30:00 UTC,2445639.729167,29.6633,-93.3933,0082,-11.48,3.51,12.0000,287.0000
1983-11-01 06:00:00 UTC,2445639.750000,29.6633,-93.3933,0082,-12.76,2.48,13.0000,281.0000
1983-11-01 06:30:00 UTC,2445639.770833,29.6633,-93.3933,0082,-14.82,2.35,15.0000,279.0000
1983-11-01 07:00:00 UTC,2445639.791667,29.6633,-93.3933,0082,-14.72,2.86,15.0000,281.0000
1983-11-01 07:30:00 UTC,2445639.812500,29.6633,-93.3933,0082,-13.79,2.43,14.0000,280.0000
1983-11-01 08:00:00 UTC,2445639.833333,29.6633,-93.3933,0082,-13.98,0.73,14.0000,273.0000
1983-11-01 08:30:00 UTC,2445639.854167,29.6633,-93.3933,0082,-15.00,-0.00,15.0000,270.0000
1983-11-01 09:00:00 UTC,2445639.875000,29.6633,-93.3933,0082,-14.96,1.05,15.0000,274.0000
1983-11-01 09:30:00 UTC,2445639.895833,29.6633,-93.3933,0082,-13.99,0.49,14.0000,272.0000
1983-11-01 10:00:00 UTC,2445639.916667,29.6633,-93.3933,0082,-13.95,-1.22,14.0000,265.0000
1983-11-01 10:30:00 UTC,2445639.937500,29.6633,-93.3933,0082,-16.99,-0.59,17.0000,268.0000
1983-11-01 11:00:00 UTC,2445639.958333,29.6633,-93.3933,0082,-16.87,2.07,17.0000,277.0000
1983-11-01 11:30:00 UTC,2445639.979167,29.6633,-93.3933,0082,-13.58,3.39,14.0000,284.0000
1983-11-01 12:00:00 UTC,2445640.000000,29.6633,-93.3933,0082,-11.82,2.08,12.0000,280.0000
1983-11-01 12:30:00 UTC,2445640.020833,29.6633,-93.3933,0082,-12.90,1.58,13.0000,277.0000
1983-11-01 13:00:00 UTC,2445640.041667,29.6633,-93.3933,0082,-15.65,3.33,16.0000,282.0000
1983-11-01 13:30:00 UTC,2445640.062500,29.6633,-93.3933,0082,-19.23,5.51,20.0000,286.0000
1983-11-01 14:00:00 UTC,2445640.083333,29.6633,-93.3933,0082,-21.15,6.06,22.0000,286.0000
1983-11-01 14:30:00 UTC,2445640.104167,29.6633,-93.3933,0082,-21.25,5.69,22.0000,285.0000
1983-11-01 15:00:00 UTC,2445640.125000,29.6633,-93.3933,0082,-22.32,5.56,23.0000,284.0000
1983-11-01 15:30:00 UTC,2445640.145833,29.6633,-93.3933,0082,-23.29,5.81,24.0000,284.0000
1983-11-01 16:00:00 UTC,2445640.166667,29.6633,-93.3933,0082,-20.46,4.72,21.0000,283.0000
1983-11-01 16:30:00 UTC,2445640.187500,29.6633,-93.3933,0082,-18.58,3.95,19.0000,282.0000
1983-11-01 17:00:00 UTC,2445640.208333,29.6633,-93.3933,0082,-18.77,2.97,19.0000,279.0000
1983-11-01 17:30:00 UTC,2445640.229167,29.6633,-93.3933,0082,-17.93,1.57,18.0000,275.0000
1983-11-01 18:00:00 UTC,2445640.250000,29.6633,-93.3933,0082,-18.00,0.31,18.0000,271.0000
1983-11-01 18:30:00 UTC,2445640.270833,29.6633,-93.3933,0082,-17.93,-1.57,18.0000,265.0000
1983-11-01 19:00:00 UTC,2445640.291667,29.6633,-93.3933,0082,-18.71,-3.30,19.0000,260.0000
1983-11-01 19:30:00 UTC,2445640.312500,29.6633,-93.3933,0082,-19.41,-4.84,20.0000,256.0000
1983-11-01 20:00:00 UTC,2445640.333333,29.6633,-93.3933,0082,-19.86,-6.84,21.0000,251.0000
1983-11-01 20:30:00 UTC,2445640.354167,29.6633,-93.3933,0082,-21.01,-9.35,23.0000,246.0000
1983-11-01 21:00:00 UTC,2445640.375000,29.6633,-93.3933,0082,-20.25,-8.60,22.0000,247.0000
1983-11-01 21:30:00 UTC,2445640.395833,29.6633,-93.3933,0082,-18.17,-5.56,19.0000,253.0000
1983-11-01 22:00:00 UTC,2445640.416667,29.6633,-93.3933,0082,-17.61,-3.74,18.0000,258.0000
1983-11-01 22:30:00 UTC,2445640.437500,29.6633,-93.3933,0082,-17.87,-2.19,18.0000,263.0000
1983-11-01 23:00:00 UTC,2445640.458333,29.6633,-93.3933,0082,-16.99,-0.59,17.0000,268.0000
1983-11-01 23:30:00 UTC,2445640.479167,29.6633,-93.3933,0082,-16.00,-0.28,16.0000,269.0000
1983-11-02 00:00:00 UTC,2445640.500000,29.6633,-93.3933,0082,-15.99,0.56,16.0000,272.0000
1983-11-02 00:30:00 UTC,2445640.520833,29.6633,-93.3933,0082,-12.87,1.81,13.0000,278.0000
1983-11-02 01:00:00 UTC,2445640.541667,29.6633,-93.3933,0082,-10.83,1.91,11.0000,280.0000
1983-11-02 01:30:00 UTC,2445640.562500,29.6633,-93.3933,0082,-9.88,1.56,10.0000,279.0000
1983-11-02 02:00:00 UTC,2445640.583333,29.6633,-93.3933,0082,-9.95,1.05,10.0000,276.0000
1983-11-02 02:30:00 UTC,2445640.604167,29.6633,-93.3933,0082,-13.00,-0.00,13.0000,270.0000
1983-11-02 03:00:00 UTC,2445640.625000,29.6633,-93.3933,0082,-18.95,-1.33,19.0000,266.0000
1983-11-02 03:30:00 UTC,2445640.645833,29.6633,-93.3933,0082,-22.94,-1.60,23.0000,266.0000
1983-11-02 04:00:00 UTC,2445640.666667,29.6633,-93.3933,0082,-22.97,-1.20,23.0000,267.0000
1983-11-02 04:30:00 UTC,2445640.687500,29.6633,-93.3933,0082,-21.97,1.15,22.0000,273.0000
1983-11-02 05:00:00 UTC,2445640.708333,29.6633,-93.3933,0082,-18.65,3.63,19.0000,281.0000
1983-11-02 05:30:00 UTC,2445640.729167,29.6633,-93.3933,0082,-15.65,3.33,16.0000,282.0000
1983-11-02 06:00:00 UTC,2445640.750000,29.6633,-93.3933,0082,-12.93,1.36,13.0000,276.0000
1983-11-02 06:30:00 UTC,2445640.770833,29.6633,-93.3933,0082,-10.97,0.77,11.0000,274.0000
1983-11-02 07:00:00 UTC,2445640.791667,29.6633,-93.3933,0082,-9.98,0.70,10.0000,274.0000
1983-11-02 07:30:00 UTC,2445640.812500,29.6633,-93.3933,0082,-8.00,-0.28,8.0000,268.0000